owner,sensor,date,latitude,longitude,vertical_datum,sea_water_practical_salinity,qcFlag 
LUMCON,ioos:station:LUMCON:wisl1:1,2019-07-01T00:00:00Z,29.1144,-90.1840,1.882,20.43,11111222 
LUMCON,ioos:station:LUMCON:wisl1:1,2019-07-01T00:15:00Z,29.1144,-90.1840,1.888,20.39,11111222 
LUMCON,ioos:station:LUMCON:wisl1:1,2019-07-01T00:30:00Z,29.1144,-90.1840,1.88,20.41,11111222 
LUMCON,ioos:station:LUMCON:wisl1:1,2019-07-01T00:45:00Z,29.1144,-90.1840,1.868,20.42,11111222 
LUMCON,ioos:station:LUMCON:wisl1:1,2019-07-01T01:00:00Z,29.1144,-90.1840,1.877,20.4,11111222 
LUMCON,ioos:station:LUMCON:wisl1:1,2019-07-01T01:15:00Z,29.1144,-90.1840,1.881,20.35,11111222 
LUMCON,ioos:station:LUMCON:wisl1:1,2019-07-01T01:30:00Z,29.1144,-90.1840,1.891,20.33,11111222 
LUMCON,ioos:station:LUMCON:wisl1:1,2019-07-01T01:45:00Z,29.1144,-90.1840,1.896,20.37,11111222 
LUMCON,ioos:station:LUMCON:wisl1:1,2019-07-01T02:00:00Z,29.1144,-90.1840,1.906,20.27,11111222 
LUMCON,ioos:station:LUMCON:wisl1:1,2019-07-01T02:15:00Z,29.1144,-90.1840,1.915,20.27,11111222 
LUMCON,ioos:station:LUMCON:wisl1:1,2019-07-01T02:30:00Z,29.1144,-90.1840,1.918,20.27,11111222 
LUMCON,ioos:station:LUMCON:wisl1:1,2019-07-01T02:45:00Z,29.1144,-90.1840,1.935,20.24,11111222 
LUMCON,ioos:station:LUMCON:wisl1:1,2019-07-01T03:00:00Z,29.1144,-90.1840,1.946,20.23,11111222 
LUMCON,ioos:station:LUMCON:wisl1:1,2019-07-01T03:15:00Z,29.1144,-90.1840,1.962,20.23,11111222 
LUMCON,ioos:station:LUMCON:wisl1:1,2019-07-01T03:30:00Z,29.1144,-90.1840,1.988,20.25,11111222 
LUMCON,ioos:station:LUMCON:wisl1:1,2019-07-01T03:45:00Z,29.1144,-90.1840,2.007,20.28,11111222 
LUMCON,ioos:station:LUMCON:wisl1:1,2019-07-01T04:00:00Z,29.1144,-90.1840,2.018,20.28,11111222 
LUMCON,ioos:station:LUMCON:wisl1:1,2019-07-01T04:15:00Z,29.1144,-90.1840,2.034,20.31,11111222 
LUMCON,ioos:station:LUMCON:wisl1:1,2019-07-01T04:30:00Z,29.1144,-90.1840,2.05,20.25,11111222 
LUMCON,ioos:station:LUMCON:wisl1:1,2019-07-01T04:45:00Z,29.1144,-90.1840,2.063,20.25,11111222 
LUMCON,ioos:station:LUMCON:wisl1:1,2019-07-01T05:00:00Z,29.1144,-90.1840,2.079,20.29,11111222 
LUMCON,ioos:station:LUMCON:wisl1:1,2019-07-01T05:15:00Z,29.1144,-90.1840,2.091,20.31,11111222 
LUMCON,ioos:station:LUMCON:wisl1:1,2019-07-01T05:30:00Z,29.1144,-90.1840,2.093,20.28,11111222 
LUMCON,ioos:station:LUMCON:wisl1:1,2019-07-01T05:45:00Z,29.1144,-90.1840,2.106,20.16,11111222 
LUMCON,ioos:station:LUMCON:wisl1:1,2019-07-01T06:00:00Z,29.1144,-90.1840,2.114,20.16,11111222 
LUMCON,ioos:station:LUMCON:wisl1:1,2019-07-01T06:15:00Z,29.1144,-90.1840,2.121,20.12,11111222 
LUMCON,ioos:station:LUMCON:wisl1:1,2019-07-01T06:30:00Z,29.1144,-90.1840,2.146,20.25,11111222 
LUMCON,ioos:station:LUMCON:wisl1:1,2019-07-01T06:45:00Z,29.1144,-90.1840,2.171,20.44,11111222 
LUMCON,ioos:station:LUMCON:wisl1:1,2019-07-01T07:00:00Z,29.1144,-90.1840,2.189,20.66,11111222 
LUMCON,ioos:station:LUMCON:wisl1:1,2019-07-01T07:15:00Z,29.1144,-90.1840,2.205,21.06,11111222 
LUMCON,ioos:station:LUMCON:wisl1:1,2019-07-01T07:30:00Z,29.1144,-90.1840,2.232,21.46,11111222 
LUMCON,ioos:station:LUMCON:wisl1:1,2019-07-01T07:45:00Z,29.1144,-90.1840,2.265,21.55,11111222 
LUMCON,ioos:station:LUMCON:wisl1:1,2019-07-01T08:00:00Z,29.1144,-90.1840,2.288,21.92,11111222 
LUMCON,ioos:station:LUMCON:wisl1:1,2019-07-01T08:15:00Z,29.1144,-90.1840,2.313,22.14,11111222 
LUMCON,ioos:station:LUMCON:wisl1:1,2019-07-01T08:30:00Z,29.1144,-90.1840,2.332,22.26,11111222 
LUMCON,ioos:station:LUMCON:wisl1:1,2019-07-01T08:45:00Z,29.1144,-90.1840,2.348,22.21,11111222 
LUMCON,ioos:station:LUMCON:wisl1:1,2019-07-01T09:00:00Z,29.1144,-90.1840,2.366,22.21,11111222 
LUMCON,ioos:station:LUMCON:wisl1:1,2019-07-01T09:15:00Z,29.1144,-90.1840,2.384,22.19,11111222 
LUMCON,ioos:station:LUMCON:wisl1:1,2019-07-01T09:30:00Z,29.1144,-90.1840,2.398,22.32,11111222 
LUMCON,ioos:station:LUMCON:wisl1:1,2019-07-01T09:45:00Z,29.1144,-90.1840,2.412,22.37,11111222 
LUMCON,ioos:station:LUMCON:wisl1:1,2019-07-01T10:00:00Z,29.1144,-90.1840,2.418,22.43,11111222 
LUMCON,ioos:station:LUMCON:wisl1:1,2019-07-01T10:15:00Z,29.1144,-90.1840,2.435,22.41,11111222 
LUMCON,ioos:station:LUMCON:wisl1:1,2019-07-01T10:30:00Z,29.1144,-90.1840,2.45,22.22,11111222 
LUMCON,ioos:station:LUMCON:wisl1:1,2019-07-01T10:45:00Z,29.1144,-90.1840,2.456,22.32,11111222 
LUMCON,ioos:station:LUMCON:wisl1:1,2019-07-01T11:00:00Z,29.1144,-90.1840,2.475,22.34,11111222 
LUMCON,ioos:station:LUMCON:wisl1:1,2019-07-01T11:15:00Z,29.1144,-90.1840,2.48,22.32,11111222 
LUMCON,ioos:station:LUMCON:wisl1:1,2019-07-01T11:30:00Z,29.1144,-90.1840,2.489,22.35,11111222 
LUMCON,ioos:station:LUMCON:wisl1:1,2019-07-01T11:45:00Z,29.1144,-90.1840,2.498,22.34,11111222 
LUMCON,ioos:station:LUMCON:wisl1:1,2019-07-01T12:00:00Z,29.1144,-90.1840,2.51,22.22,11111222 
LUMCON,ioos:station:LUMCON:wisl1:1,2019-07-01T12:15:00Z,29.1144,-90.1840,2.517,22.25,11111222 
LUMCON,ioos:station:LUMCON:wisl1:1,2019-07-01T12:30:00Z,29.1144,-90.1840,2.523,22.24,11111222 
LUMCON,ioos:station:LUMCON:wisl1:1,2019-07-01T12:45:00Z,29.1144,-90.1840,2.53,22.22,11111222 
LUMCON,ioos:station:LUMCON:wisl1:1,2019-07-01T13:00:00Z,29.1144,-90.1840,2.537,22.05,11111222 
LUMCON,ioos:station:LUMCON:wisl1:1,2019-07-01T13:15:00Z,29.1144,-90.1840,2.533,21.97,11111222 
LUMCON,ioos:station:LUMCON:wisl1:1,2019-07-01T13:30:00Z,29.1144,-90.1840,2.537,21.81,11111222 
LUMCON,ioos:station:LUMCON:wisl1:1,2019-07-01T13:45:00Z,29.1144,-90.1840,2.541,22.0,11111222 
LUMCON,ioos:station:LUMCON:wisl1:1,2019-07-01T14:00:00Z,29.1144,-90.1840,2.543,21.91,11111222 
LUMCON,ioos:station:LUMCON:wisl1:1,2019-07-01T14:15:00Z,29.1144,-90.1840,2.545,21.59,11111222 
LUMCON,ioos:station:LUMCON:wisl1:1,2019-07-01T14:30:00Z,29.1144,-90.1840,2.544,21.69,11111222 
LUMCON,ioos:station:LUMCON:wisl1:1,2019-07-01T14:45:00Z,29.1144,-90.1840,2.54,21.62,11111222 
LUMCON,ioos:station:LUMCON:wisl1:1,2019-07-01T15:00:00Z,29.1144,-90.1840,2.537,21.56,11111222 
LUMCON,ioos:station:LUMCON:wisl1:1,2019-07-01T15:15:00Z,29.1144,-90.1840,2.534,21.5,11111222 
LUMCON,ioos:station:LUMCON:wisl1:1,2019-07-01T15:30:00Z,29.1144,-90.1840,2.523,21.78,11111222 
LUMCON,ioos:station:LUMCON:wisl1:1,2019-07-01T15:45:00Z,29.1144,-90.1840,2.513,21.34,11111222 
LUMCON,ioos:station:LUMCON:wisl1:1,2019-07-01T16:00:00Z,29.1144,-90.1840,2.492,21.7,11111222 
LUMCON,ioos:station:LUMCON:wisl1:1,2019-07-01T16:15:00Z,29.1144,-90.1840,2.472,21.52,11111222 
LUMCON,ioos:station:LUMCON:wisl1:1,2019-07-01T16:30:00Z,29.1144,-90.1840,2.459,22.3,11111222 
LUMCON,ioos:station:LUMCON:wisl1:1,2019-07-01T16:45:00Z,29.1144,-90.1840,2.455,21.96,11111222 
LUMCON,ioos:station:LUMCON:wisl1:1,2019-07-01T17:00:00Z,29.1144,-90.1840,2.438,21.9,11111222 
LUMCON,ioos:station:LUMCON:wisl1:1,2019-07-01T17:15:00Z,29.1144,-90.1840,2.412,22.0,11111222 
LUMCON,ioos:station:LUMCON:wisl1:1,2019-07-01T17:30:00Z,29.1144,-90.1840,2.397,21.95,11111222 
LUMCON,ioos:station:LUMCON:wisl1:1,2019-07-01T17:45:00Z,29.1144,-90.1840,2.371,21.82,11111222 
LUMCON,ioos:station:LUMCON:wisl1:1,2019-07-01T18:00:00Z,29.1144,-90.1840,2.352,21.83,11111222 
LUMCON,ioos:station:LUMCON:wisl1:1,2019-07-01T18:15:00Z,29.1144,-90.1840,2.335,21.77,11111222 
LUMCON,ioos:station:LUMCON:wisl1:1,2019-07-01T18:30:00Z,29.1144,-90.1840,2.305,21.91,11111222 
LUMCON,ioos:station:LUMCON:wisl1:1,2019-07-01T18:45:00Z,29.1144,-90.1840,2.266,21.77,11111222 
LUMCON,ioos:station:LUMCON:wisl1:1,2019-07-01T19:00:00Z,29.1144,-90.1840,2.251,21.77,11111222 
LUMCON,ioos:station:LUMCON:wisl1:1,2019-07-01T19:15:00Z,29.1144,-90.1840,2.221,21.76,11111222 
LUMCON,ioos:station:LUMCON:wisl1:1,2019-07-01T19:30:00Z,29.1144,-90.1840,2.193,21.68,11111222 
LUMCON,ioos:station:LUMCON:wisl1:1,2019-07-01T19:45:00Z,29.1144,-90.1840,2.173,21.66,11111222 
LUMCON,ioos:station:LUMCON:wisl1:1,2019-07-01T20:00:00Z,29.1144,-90.1840,2.163,21.67,11111222 
LUMCON,ioos:station:LUMCON:wisl1:1,2019-07-01T20:15:00Z,29.1144,-90.1840,2.133,21.65,11111222 
LUMCON,ioos:station:LUMCON:wisl1:1,2019-07-01T20:30:00Z,29.1144,-90.1840,2.111,21.63,11111222 
LUMCON,ioos:station:LUMCON:wisl1:1,2019-07-01T20:45:00Z,29.1144,-90.1840,2.089,21.62,11111222 
LUMCON,ioos:station:LUMCON:wisl1:1,2019-07-01T21:00:00Z,29.1144,-90.1840,2.078,21.55,11111222 
LUMCON,ioos:station:LUMCON:wisl1:1,2019-07-01T21:15:00Z,29.1144,-90.1840,2.063,21.48,11111222 
LUMCON,ioos:station:LUMCON:wisl1:1,2019-07-01T21:30:00Z,29.1144,-90.1840,2.047,21.44,11111222 
LUMCON,ioos:station:LUMCON:wisl1:1,2019-07-01T21:45:00Z,29.1144,-90.1840,2.019,21.44,11111222 
LUMCON,ioos:station:LUMCON:wisl1:1,2019-07-01T22:00:00Z,29.1144,-90.1840,1.994,21.38,11111222 
LUMCON,ioos:station:LUMCON:wisl1:1,2019-07-01T22:15:00Z,29.1144,-90.1840,1.983,21.33,11111222 
LUMCON,ioos:station:LUMCON:wisl1:1,2019-07-01T22:30:00Z,29.1144,-90.1840,1.959,21.27,11111222 
LUMCON,ioos:station:LUMCON:wisl1:1,2019-07-01T22:45:00Z,29.1144,-90.1840,1.94,21.24,11111222 
LUMCON,ioos:station:LUMCON:wisl1:1,2019-07-01T23:00:00Z,29.1144,-90.1840,1.932,21.19,11111222 
LUMCON,ioos:station:LUMCON:wisl1:1,2019-07-01T23:15:00Z,29.1144,-90.1840,1.927,21.14,11111222 
LUMCON,ioos:station:LUMCON:wisl1:1,2019-07-01T23:30:00Z,29.1144,-90.1840,1.908,21.09,11111222 
LUMCON,ioos:station:LUMCON:wisl1:1,2019-07-01T23:45:00Z,29.1144,-90.1840,1.901,21.03,11111222 
LUMCON,ioos:station:LUMCON:wisl1:1,2019-07-02T00:00:00Z,29.1144,-90.1840,1.902,20.99,11111222 
LUMCON,ioos:station:LUMCON:wisl1:1,2019-07-02T00:15:00Z,29.1144,-90.1840,1.902,20.96,11111222 
LUMCON,ioos:station:LUMCON:wisl1:1,2019-07-02T00:30:00Z,29.1144,-90.1840,1.903,20.91,11111222 
LUMCON,ioos:station:LUMCON:wisl1:1,2019-07-02T00:45:00Z,29.1144,-90.1840,1.904,20.87,11111222 
LUMCON,ioos:station:LUMCON:wisl1:1,2019-07-02T01:00:00Z,29.1144,-90.1840,1.897,20.84,11111222 
LUMCON,ioos:station:LUMCON:wisl1:1,2019-07-02T01:15:00Z,29.1144,-90.1840,1.896,20.79,11111222 
LUMCON,ioos:station:LUMCON:wisl1:1,2019-07-02T01:30:00Z,29.1144,-90.1840,1.908,20.78,11111222 
LUMCON,ioos:station:LUMCON:wisl1:1,2019-07-02T01:45:00Z,29.1144,-90.1840,1.915,20.75,11111222 
LUMCON,ioos:station:LUMCON:wisl1:1,2019-07-02T02:00:00Z,29.1144,-90.1840,1.927,20.71,11111222 
LUMCON,ioos:station:LUMCON:wisl1:1,2019-07-02T02:15:00Z,29.1144,-90.1840,1.939,20.72,11111222 
LUMCON,ioos:station:LUMCON:wisl1:1,2019-07-02T02:30:00Z,29.1144,-90.1840,1.945,20.7,11111222 
LUMCON,ioos:station:LUMCON:wisl1:1,2019-07-02T02:45:00Z,29.1144,-90.1840,1.952,20.66,11111222 
LUMCON,ioos:station:LUMCON:wisl1:1,2019-07-02T03:00:00Z,29.1144,-90.1840,1.968,20.64,11111222 
LUMCON,ioos:station:LUMCON:wisl1:1,2019-07-02T03:15:00Z,29.1144,-90.1840,1.977,20.53,11111222 
LUMCON,ioos:station:LUMCON:wisl1:1,2019-07-02T03:30:00Z,29.1144,-90.1840,1.986,20.52,11111222 
LUMCON,ioos:station:LUMCON:wisl1:1,2019-07-02T03:45:00Z,29.1144,-90.1840,2.005,20.5,11111222 
LUMCON,ioos:station:LUMCON:wisl1:1,2019-07-02T04:00:00Z,29.1144,-90.1840,2.01,20.5,11111222 
LUMCON,ioos:station:LUMCON:wisl1:1,2019-07-02T04:15:00Z,29.1144,-90.1840,2.021,20.46,11111222 
LUMCON,ioos:station:LUMCON:wisl1:1,2019-07-02T04:30:00Z,29.1144,-90.1840,2.032,20.47,11111222 
LUMCON,ioos:station:LUMCON:wisl1:1,2019-07-02T04:45:00Z,29.1144,-90.1840,2.05,20.49,11111222 
LUMCON,ioos:station:LUMCON:wisl1:1,2019-07-02T05:00:00Z,29.1144,-90.1840,2.059,20.5,11111222 
LUMCON,ioos:station:LUMCON:wisl1:1,2019-07-02T05:15:00Z,29.1144,-90.1840,2.074,20.57,11111222 
LUMCON,ioos:station:LUMCON:wisl1:1,2019-07-02T05:30:00Z,29.1144,-90.1840,2.084,20.59,11111222 
LUMCON,ioos:station:LUMCON:wisl1:1,2019-07-02T05:45:00Z,29.1144,-90.1840,2.102,20.65,11111222 
LUMCON,ioos:station:LUMCON:wisl1:1,2019-07-02T06:00:00Z,29.1144,-90.1840,2.111,20.67,11111222 
LUMCON,ioos:station:LUMCON:wisl1:1,2019-07-02T06:15:00Z,29.1144,-90.1840,2.123,20.71,11111222 
LUMCON,ioos:station:LUMCON:wisl1:1,2019-07-02T06:30:00Z,29.1144,-90.1840,2.147,20.65,11111222 
LUMCON,ioos:station:LUMCON:wisl1:1,2019-07-02T06:45:00Z,29.1144,-90.1840,2.153,20.54,11111222 
LUMCON,ioos:station:LUMCON:wisl1:1,2019-07-02T07:00:00Z,29.1144,-90.1840,2.173,20.43,11111222 
LUMCON,ioos:station:LUMCON:wisl1:1,2019-07-02T07:15:00Z,29.1144,-90.1840,2.178,20.35,11111222 
LUMCON,ioos:station:LUMCON:wisl1:1,2019-07-02T07:30:00Z,29.1144,-90.1840,2.185,20.17,11111222 
LUMCON,ioos:station:LUMCON:wisl1:1,2019-07-02T07:45:00Z,29.1144,-90.1840,2.197,20.09,11111222 
LUMCON,ioos:station:LUMCON:wisl1:1,2019-07-02T08:00:00Z,29.1144,-90.1840,2.215,19.95,11111222 
LUMCON,ioos:station:LUMCON:wisl1:1,2019-07-02T08:15:00Z,29.1144,-90.1840,2.227,19.87,11111222 
LUMCON,ioos:station:LUMCON:wisl1:1,2019-07-02T08:30:00Z,29.1144,-90.1840,2.238,19.83,11111222 
LUMCON,ioos:station:LUMCON:wisl1:1,2019-07-02T08:45:00Z,29.1144,-90.1840,2.252,19.78,11111222 
LUMCON,ioos:station:LUMCON:wisl1:1,2019-07-02T09:00:00Z,29.1144,-90.1840,2.265,19.73,11111222 
LUMCON,ioos:station:LUMCON:wisl1:1,2019-07-02T09:15:00Z,29.1144,-90.1840,2.277,19.7,11111222 
LUMCON,ioos:station:LUMCON:wisl1:1,2019-07-02T09:30:00Z,29.1144,-90.1840,2.294,19.64,11111222 
LUMCON,ioos:station:LUMCON:wisl1:1,2019-07-02T09:45:00Z,29.1144,-90.1840,2.314,19.65,11111222 
LUMCON,ioos:station:LUMCON:wisl1:1,2019-07-02T10:00:00Z,29.1144,-90.1840,2.328,19.69,11111222 
LUMCON,ioos:station:LUMCON:wisl1:1,2019-07-02T10:15:00Z,29.1144,-90.1840,2.343,20.0,11111222 
LUMCON,ioos:station:LUMCON:wisl1:1,2019-07-02T10:30:00Z,29.1144,-90.1840,2.358,20.19,11111222 
LUMCON,ioos:station:LUMCON:wisl1:1,2019-07-02T10:45:00Z,29.1144,-90.1840,2.378,20.23,11111222 
LUMCON,ioos:station:LUMCON:wisl1:1,2019-07-02T11:00:00Z,29.1144,-90.1840,2.39,20.39,11111222 
LUMCON,ioos:station:LUMCON:wisl1:1,2019-07-02T11:15:00Z,29.1144,-90.1840,2.401,20.6,11111222 
LUMCON,ioos:station:LUMCON:wisl1:1,2019-07-02T11:30:00Z,29.1144,-90.1840,2.415,20.67,11111222 
LUMCON,ioos:station:LUMCON:wisl1:1,2019-07-02T11:45:00Z,29.1144,-90.1840,2.428,20.94,11111222 
LUMCON,ioos:station:LUMCON:wisl1:1,2019-07-02T12:00:00Z,29.1144,-90.1840,2.442,20.97,11111222 
LUMCON,ioos:station:LUMCON:wisl1:1,2019-07-02T12:15:00Z,29.1144,-90.1840,2.459,20.85,11111222 
LUMCON,ioos:station:LUMCON:wisl1:1,2019-07-02T12:30:00Z,29.1144,-90.1840,2.467,21.39,11111222 
LUMCON,ioos:station:LUMCON:wisl1:1,2019-07-02T12:45:00Z,29.1144,-90.1840,2.472,21.41,11111222 
LUMCON,ioos:station:LUMCON:wisl1:1,2019-07-02T13:00:00Z,29.1144,-90.1840,2.477,21.55,11111222 
LUMCON,ioos:station:LUMCON:wisl1:1,2019-07-02T13:15:00Z,29.1144,-90.1840,2.483,21.48,11111222 
LUMCON,ioos:station:LUMCON:wisl1:1,2019-07-02T13:30:00Z,29.1144,-90.1840,2.486,21.63,11111222 
LUMCON,ioos:station:LUMCON:wisl1:1,2019-07-02T13:45:00Z,29.1144,-90.1840,2.489,21.73,11111222 
LUMCON,ioos:station:LUMCON:wisl1:1,2019-07-02T14:00:00Z,29.1144,-90.1840,2.49,21.81,11111222 
LUMCON,ioos:station:LUMCON:wisl1:1,2019-07-02T14:15:00Z,29.1144,-90.1840,2.491,21.84,11111222 
LUMCON,ioos:station:LUMCON:wisl1:1,2019-07-02T14:30:00Z,29.1144,-90.1840,2.492,21.91,11111222 
LUMCON,ioos:station:LUMCON:wisl1:1,2019-07-02T14:45:00Z,29.1144,-90.1840,2.495,21.89,11111222 
LUMCON,ioos:station:LUMCON:wisl1:1,2019-07-02T15:00:00Z,29.1144,-90.1840,2.497,21.89,11111222 
LUMCON,ioos:station:LUMCON:wisl1:1,2019-07-02T15:15:00Z,29.1144,-90.1840,2.504,21.97,11111222 
LUMCON,ioos:station:LUMCON:wisl1:1,2019-07-02T15:30:00Z,29.1144,-90.1840,2.504,22.05,11111222 
LUMCON,ioos:station:LUMCON:wisl1:1,2019-07-02T15:45:00Z,29.1144,-90.1840,2.499,22.06,11111222 
LUMCON,ioos:station:LUMCON:wisl1:1,2019-07-02T16:00:00Z,29.1144,-90.1840,2.49,22.07,11111222 
LUMCON,ioos:station:LUMCON:wisl1:1,2019-07-02T16:15:00Z,29.1144,-90.1840,2.485,22.13,11111222 
LUMCON,ioos:station:LUMCON:wisl1:1,2019-07-02T16:30:00Z,29.1144,-90.1840,2.483,22.12,11111222 
LUMCON,ioos:station:LUMCON:wisl1:1,2019-07-02T16:45:00Z,29.1144,-90.1840,2.474,22.17,11111222 
LUMCON,ioos:station:LUMCON:wisl1:1,2019-07-02T17:00:00Z,29.1144,-90.1840,2.472,22.06,11111222 
LUMCON,ioos:station:LUMCON:wisl1:1,2019-07-02T17:15:00Z,29.1144,-90.1840,2.469,21.97,11111222 
LUMCON,ioos:station:LUMCON:wisl1:1,2019-07-02T17:30:00Z,29.1144,-90.1840,2.459,22.11,11111222 
LUMCON,ioos:station:LUMCON:wisl1:1,2019-07-02T17:45:00Z,29.1144,-90.1840,2.449,22.17,11111222 
LUMCON,ioos:station:LUMCON:wisl1:1,2019-07-02T18:00:00Z,29.1144,-90.1840,2.429,22.07,11111222 
LUMCON,ioos:station:LUMCON:wisl1:1,2019-07-02T18:15:00Z,29.1144,-90.1840,2.408,21.85,11111222 
LUMCON,ioos:station:LUMCON:wisl1:1,2019-07-02T18:30:00Z,29.1144,-90.1840,2.372,21.75,11111222 
LUMCON,ioos:station:LUMCON:wisl1:1,2019-07-02T18:45:00Z,29.1144,-90.1840,2.357,21.62,11111222 
LUMCON,ioos:station:LUMCON:wisl1:1,2019-07-02T19:00:00Z,29.1144,-90.1840,2.347,21.52,11111222 
LUMCON,ioos:station:LUMCON:wisl1:1,2019-07-02T19:15:00Z,29.1144,-90.1840,2.327,21.52,11111222 
LUMCON,ioos:station:LUMCON:wisl1:1,2019-07-02T19:30:00Z,29.1144,-90.1840,2.315,21.34,11111222 
LUMCON,ioos:station:LUMCON:wisl1:1,2019-07-02T19:45:00Z,29.1144,-90.1840,2.28,21.2,11111222 
LUMCON,ioos:station:LUMCON:wisl1:1,2019-07-02T20:00:00Z,29.1144,-90.1840,2.231,21.13,11111222 
LUMCON,ioos:station:LUMCON:wisl1:1,2019-07-02T20:15:00Z,29.1144,-90.1840,2.227,20.84,11111222 
LUMCON,ioos:station:LUMCON:wisl1:1,2019-07-02T20:30:00Z,29.1144,-90.1840,2.201,20.69,11111222 
LUMCON,ioos:station:LUMCON:wisl1:1,2019-07-02T20:45:00Z,29.1144,-90.1840,2.2,20.68,11111222 
LUMCON,ioos:station:LUMCON:wisl1:1,2019-07-02T21:00:00Z,29.1144,-90.1840,2.191,20.66,11111222 
LUMCON,ioos:station:LUMCON:wisl1:1,2019-07-02T21:15:00Z,29.1144,-90.1840,2.172,20.58,11111222 
LUMCON,ioos:station:LUMCON:wisl1:1,2019-07-02T21:30:00Z,29.1144,-90.1840,2.155,20.56,11111222 
LUMCON,ioos:station:LUMCON:wisl1:1,2019-07-02T21:45:00Z,29.1144,-90.1840,2.145,20.53,11111222 
LUMCON,ioos:station:LUMCON:wisl1:1,2019-07-02T22:00:00Z,29.1144,-90.1840,2.116,20.47,11111222 
LUMCON,ioos:station:LUMCON:wisl1:1,2019-07-02T22:15:00Z,29.1144,-90.1840,2.089,20.4,11111222 
LUMCON,ioos:station:LUMCON:wisl1:1,2019-07-02T22:30:00Z,29.1144,-90.1840,2.074,20.38,11111222 
LUMCON,ioos:station:LUMCON:wisl1:1,2019-07-02T22:45:00Z,29.1144,-90.1840,2.067,20.35,11111222 
LUMCON,ioos:station:LUMCON:wisl1:1,2019-07-02T23:00:00Z,29.1144,-90.1840,2.044,20.3,11111222 
LUMCON,ioos:station:LUMCON:wisl1:1,2019-07-02T23:15:00Z,29.1144,-90.1840,2.037,20.26,11111222 
LUMCON,ioos:station:LUMCON:wisl1:1,2019-07-02T23:30:00Z,29.1144,-90.1840,2.022,20.2,11111222 
LUMCON,ioos:station:LUMCON:wisl1:1,2019-07-02T23:45:00Z,29.1144,-90.1840,2.012,20.19,11111222 
LUMCON,ioos:station:LUMCON:wisl1:1,2019-07-03T00:00:00Z,29.1144,-90.1840,2.006,20.17,11111222 
LUMCON,ioos:station:LUMCON:wisl1:1,2019-07-03T00:15:00Z,29.1144,-90.1840,1.991,20.14,11111222 
LUMCON,ioos:station:LUMCON:wisl1:1,2019-07-03T00:30:00Z,29.1144,-90.1840,1.982,20.13,11111222 
LUMCON,ioos:station:LUMCON:wisl1:1,2019-07-03T00:45:00Z,29.1144,-90.1840,1.976,20.11,11111222 
LUMCON,ioos:station:LUMCON:wisl1:1,2019-07-03T01:00:00Z,29.1144,-90.1840,1.973,20.1,11111222 
LUMCON,ioos:station:LUMCON:wisl1:1,2019-07-03T01:15:00Z,29.1144,-90.1840,1.98,20.09,11111222 
LUMCON,ioos:station:LUMCON:wisl1:1,2019-07-03T01:30:00Z,29.1144,-90.1840,1.975,20.09,11111222 
LUMCON,ioos:station:LUMCON:wisl1:1,2019-07-03T01:45:00Z,29.1144,-90.1840,1.976,20.08,11111222 
LUMCON,ioos:station:LUMCON:wisl1:1,2019-07-03T02:00:00Z,29.1144,-90.1840,1.984,20.08,11111222 
LUMCON,ioos:station:LUMCON:wisl1:1,2019-07-03T02:15:00Z,29.1144,-90.1840,1.987,20.07,11111222 
LUMCON,ioos:station:LUMCON:wisl1:1,2019-07-03T02:30:00Z,29.1144,-90.1840,1.985,20.07,11111222 
LUMCON,ioos:station:LUMCON:wisl1:1,2019-07-03T02:45:00Z,29.1144,-90.1840,1.988,20.06,11111222 
LUMCON,ioos:station:LUMCON:wisl1:1,2019-07-03T03:00:00Z,29.1144,-90.1840,1.991,20.05,11111222 
LUMCON,ioos:station:LUMCON:wisl1:1,2019-07-03T03:15:00Z,29.1144,-90.1840,1.997,20.05,11111222 
LUMCON,ioos:station:LUMCON:wisl1:1,2019-07-03T03:30:00Z,29.1144,-90.1840,1.993,20.05,11111222 
LUMCON,ioos:station:LUMCON:wisl1:1,2019-07-03T03:45:00Z,29.1144,-90.1840,2.006,20.04,11111222 
LUMCON,ioos:station:LUMCON:wisl1:1,2019-07-03T04:00:00Z,29.1144,-90.1840,2.014,20.04,11111222 
LUMCON,ioos:station:LUMCON:wisl1:1,2019-07-03T04:15:00Z,29.1144,-90.1840,2.023,20.05,11111222 
LUMCON,ioos:station:LUMCON:wisl1:1,2019-07-03T04:30:00Z,29.1144,-90.1840,2.038,20.02,11111222 
LUMCON,ioos:station:LUMCON:wisl1:1,2019-07-03T04:45:00Z,29.1144,-90.1840,2.045,20.0,11111222 
LUMCON,ioos:station:LUMCON:wisl1:1,2019-07-03T05:00:00Z,29.1144,-90.1840,2.051,20.0,11111222 
LUMCON,ioos:station:LUMCON:wisl1:1,2019-07-03T05:15:00Z,29.1144,-90.1840,2.072,19.99,11111222 
LUMCON,ioos:station:LUMCON:wisl1:1,2019-07-03T05:30:00Z,29.1144,-90.1840,2.09,20.0,11111222 
LUMCON,ioos:station:LUMCON:wisl1:1,2019-07-03T05:45:00Z,29.1144,-90.1840,2.108,20.02,11111222 
LUMCON,ioos:station:LUMCON:wisl1:1,2019-07-03T06:00:00Z,29.1144,-90.1840,2.122,20.04,11111222 
LUMCON,ioos:station:LUMCON:wisl1:1,2019-07-03T06:15:00Z,29.1144,-90.1840,2.14,20.04,11111222 
LUMCON,ioos:station:LUMCON:wisl1:1,2019-07-03T06:30:00Z,29.1144,-90.1840,2.151,20.04,11111222 
LUMCON,ioos:station:LUMCON:wisl1:1,2019-07-03T06:45:00Z,29.1144,-90.1840,2.171,20.05,11111222 
LUMCON,ioos:station:LUMCON:wisl1:1,2019-07-03T07:00:00Z,29.1144,-90.1840,2.195,19.99,11111222 
LUMCON,ioos:station:LUMCON:wisl1:1,2019-07-03T07:15:00Z,29.1144,-90.1840,2.195,19.91,11111222 
LUMCON,ioos:station:LUMCON:wisl1:1,2019-07-03T07:30:00Z,29.1144,-90.1840,2.208,19.82,11111222 
LUMCON,ioos:station:LUMCON:wisl1:1,2019-07-03T07:45:00Z,29.1144,-90.1840,2.209,19.68,11111222 
LUMCON,ioos:station:LUMCON:wisl1:1,2019-07-03T08:00:00Z,29.1144,-90.1840,2.219,19.43,11111222 
LUMCON,ioos:station:LUMCON:wisl1:1,2019-07-03T08:15:00Z,29.1144,-90.1840,2.239,19.23,11111222 
LUMCON,ioos:station:LUMCON:wisl1:1,2019-07-03T08:30:00Z,29.1144,-90.1840,2.244,19.18,11111222 
LUMCON,ioos:station:LUMCON:wisl1:1,2019-07-03T08:45:00Z,29.1144,-90.1840,2.255,19.11,11111222 
LUMCON,ioos:station:LUMCON:wisl1:1,2019-07-03T09:00:00Z,29.1144,-90.1840,2.266,19.1,11111222 
LUMCON,ioos:station:LUMCON:wisl1:1,2019-07-03T09:15:00Z,29.1144,-90.1840,2.279,19.6,11111222 
LUMCON,ioos:station:LUMCON:wisl1:1,2019-07-03T09:30:00Z,29.1144,-90.1840,2.291,19.91,11111222 
LUMCON,ioos:station:LUMCON:wisl1:1,2019-07-03T09:45:00Z,29.1144,-90.1840,2.309,20.11,11111222 
LUMCON,ioos:station:LUMCON:wisl1:1,2019-07-03T10:00:00Z,29.1144,-90.1840,2.327,20.49,11111222 
LUMCON,ioos:station:LUMCON:wisl1:1,2019-07-03T10:15:00Z,29.1144,-90.1840,2.333,20.9,11111222 
LUMCON,ioos:station:LUMCON:wisl1:1,2019-07-03T10:30:00Z,29.1144,-90.1840,2.349,21.35,11111222 
LUMCON,ioos:station:LUMCON:wisl1:1,2019-07-03T10:45:00Z,29.1144,-90.1840,2.362,21.81,11111222 
LUMCON,ioos:station:LUMCON:wisl1:1,2019-07-03T11:00:00Z,29.1144,-90.1840,2.377,22.02,11111222 
LUMCON,ioos:station:LUMCON:wisl1:1,2019-07-03T11:15:00Z,29.1144,-90.1840,2.385,22.39,11111222 
LUMCON,ioos:station:LUMCON:wisl1:1,2019-07-03T11:30:00Z,29.1144,-90.1840,2.405,22.63,11111222 
LUMCON,ioos:station:LUMCON:wisl1:1,2019-07-03T11:45:00Z,29.1144,-90.1840,2.415,22.92,11111222 
LUMCON,ioos:station:LUMCON:wisl1:1,2019-07-03T12:00:00Z,29.1144,-90.1840,2.419,23.37,11111222 
LUMCON,ioos:station:LUMCON:wisl1:1,2019-07-03T12:15:00Z,29.1144,-90.1840,2.438,23.31,11111222 
LUMCON,ioos:station:LUMCON:wisl1:1,2019-07-03T12:30:00Z,29.1144,-90.1840,2.444,23.59,11111222 
LUMCON,ioos:station:LUMCON:wisl1:1,2019-07-03T12:45:00Z,29.1144,-90.1840,2.448,23.67,11111222 
LUMCON,ioos:station:LUMCON:wisl1:1,2019-07-03T13:00:00Z,29.1144,-90.1840,2.459,23.8,11111222 
LUMCON,ioos:station:LUMCON:wisl1:1,2019-07-03T13:15:00Z,29.1144,-90.1840,2.473,23.76,11111222 
LUMCON,ioos:station:LUMCON:wisl1:1,2019-07-03T13:30:00Z,29.1144,-90.1840,2.474,23.93,11111222 
LUMCON,ioos:station:LUMCON:wisl1:1,2019-07-03T13:45:00Z,29.1144,-90.1840,2.479,23.97,11111222 
LUMCON,ioos:station:LUMCON:wisl1:1,2019-07-03T14:00:00Z,29.1144,-90.1840,2.487,24.08,11111222 
LUMCON,ioos:station:LUMCON:wisl1:1,2019-07-03T14:15:00Z,29.1144,-90.1840,2.493,23.87,11111222 
LUMCON,ioos:station:LUMCON:wisl1:1,2019-07-03T14:30:00Z,29.1144,-90.1840,2.502,24.03,11111222 
LUMCON,ioos:station:LUMCON:wisl1:1,2019-07-03T14:45:00Z,29.1144,-90.1840,2.506,24.04,11111222 